{"data":{"norad_id":56096,"epoch":"2026-09-19T02:33:09.063360Z","epoch_age_seconds":226511,"freshness":"STALE","line1":"1 56096U 23046D   26262.10635490 -.00000008  00000+0  92378-5 0  9999","line2":"2 56096  43.0012 149.1121 0001279 238.3548 121.7179 15.27576592191614","mean_motion":15.27576592,"eccentricity":0.0001279,"inclination_deg":43.0012,"raan_deg":149.1121,"arg_perigee_deg":238.3548,"mean_anomaly_deg":121.7179,"bstar":9.2378e-6,"rev_number":19161,"period_min":94.266959021325,"perigee_km":482.18175382977,"apogee_km":483.93684784352,"semimajor_km":6861.1963008366,"source":"CELESTRAK","updated_at":"2026-09-21T09:00:33.362088Z"}}